Estación de Río Bueno
Ultimos registro cada 15 minutos 25
| N° | Estación | Fecha / Hora | Temperatura | Humedad | Lluvia | Velocidad | Dirección | Radiación | Presion |
| 25 | Río Bueno | 07-05-2026 06:00 | 4,7 | 88,8 | 0 | 0 | 223 | 0,6 | 1023,2 |
| 24 | Río Bueno | 07-05-2026 05:45 | 5,8 | 90,5 | 0 | 0,7 | 218 | 0,6 | 1023,2 |
| 23 | Río Bueno | 07-05-2026 05:30 | 4 | 93,2 | 0 | 0 | 257 | 0,6 | 1023,3 |
| 22 | Río Bueno | 07-05-2026 05:15 | 3,3 | 91,4 | 0 | 0 | 258 | 0,6 | 1023 |
| 21 | Río Bueno | 07-05-2026 05:00 | 3,3 | 89,8 | 0 | 0 | 257 | 0,6 | 1022,6 |
| 20 | Río Bueno | 07-05-2026 04:45 | 3,9 | 89,7 | 0 | 0 | 246 | 0,6 | 1022,7 |
| 19 | Río Bueno | 07-05-2026 04:30 | 4,3 | 86,3 | 0 | 0 | 246 | 0,6 | 1022,4 |
| 18 | Río Bueno | 07-05-2026 04:15 | 5,5 | 83,1 | 0 | 0 | 246 | 0,6 | 1022,5 |
| 17 | Río Bueno | 07-05-2026 04:00 | 6,8 | 79 | 0 | 0,7 | 243 | 0,6 | 1022,2 |
| 16 | Río Bueno | 07-05-2026 03:45 | 7,3 | 77,1 | 0 | 0,7 | 215 | 0,6 | 1022,1 |
| 15 | Río Bueno | 07-05-2026 03:30 | 7,4 | 79,3 | 0 | 1,3 | 229 | 0,6 | 1022,2 |
| 14 | Río Bueno | 07-05-2026 03:15 | 7,6 | 80 | 0 | 1,3 | 244 | 0,6 | 1022,2 |
| 13 | Río Bueno | 07-05-2026 03:00 | 7,5 | 81 | 0 | 1,7 | 248 | 0,6 | 1022,1 |
| 12 | Río Bueno | 07-05-2026 02:45 | 7,7 | 83 | 0 | 1,3 | 253 | 0,6 | 1021,8 |
| 11 | Río Bueno | 07-05-2026 02:30 | 7,9 | 84,8 | 0 | 1 | 258 | 0,6 | 1021,7 |
| 10 | Río Bueno | 07-05-2026 02:15 | 7,6 | 87,8 | 0 | 0,7 | 261 | 0,6 | 1021,3 |
| 9 | Río Bueno | 07-05-2026 02:00 | 7,4 | 90,4 | 0 | 0,3 | 265 | 0,6 | 1021,1 |
| 8 | Río Bueno | 07-05-2026 01:45 | 7,1 | 92,1 | 0 | 0,3 | 279 | 0,6 | 1020,9 |
| 7 | Río Bueno | 07-05-2026 01:30 | 6,9 | 93,1 | 0 | 0,3 | 282 | 0,6 | 1020,7 |
| 6 | Río Bueno | 07-05-2026 01:15 | 6,7 | 92,9 | 0 | 0,3 | 295 | 0,6 | 1020,6 |
| 5 | Río Bueno | 07-05-2026 01:00 | 7 | 92,6 | 0 | 0,3 | 306 | 0,6 | 1020,5 |
| 4 | Río Bueno | 07-05-2026 00:45 | 7,1 | 93 | 0 | 0 | 250 | 0,6 | 1020,5 |
| 3 | Río Bueno | 07-05-2026 00:30 | 7,1 | 93,4 | 0 | 0,3 | 258 | 0,6 | 1020,4 |
| 2 | Río Bueno | 07-05-2026 00:15 | 6,1 | 93 | 0 | 0 | 278 | 0,6 | 1020,2 |
| 1 | Río Bueno | 07-05-2026 00:00 | 6,7 | 93,4 | 0 | 0 | 292 | 0,6 | 1020,1 |